Tracking 19717 objects as of 24-Jun-2019
HD Live streaming from Space Station
objects crossing your sky now

OPS 5805

Track OPS 5805 now!
OPS 5805 is classified as:


NORAD ID: 12093
Int'l Code: 1980-100A
Perigee: 2,087.2 km
Apogee: 38,309.2 km
Inclination: 63.0 °
Period: 718.3 minutes
Semi major axis: 26569 km
RCS: Unknown
Launch date: December 13, 1980
Source: United States (US)
Launch site: AIR FORCE WESTERN TEST RANGE (AFWTR)
aabbcc
Your satellite tracking list
Your tracking list is empty




NASA's NSSDC Master Catalog

Two Line Element Set (TLE):
1 12093U 80100A   19170.10204161  .00001017  00000-0  00000+0 0  9995
2 12093  63.0389 125.6875 6816555 277.8400  15.6404  2.00463676   873
Source of the keplerian elements: AFSPC